TimeCST,TemperatureF,Dew PointF,Humidity,Sea Level PressureIn,VisibilityMPH,Wind Direction,Wind SpeedMPH,Gust SpeedMPH,PrecipitationIn,Events,Conditions,WindDirDegrees,DateUTC
12:53 AM,66.0,63.0,90,29.91,7.0,West,3.5,-,0.00,,Overcast,270,2012-12-15 06:53:00
1:22 AM,64.9,63.0,93,29.94,3.0,Calm,Calm,-,0.01,Rain,Rain,0,2012-12-15 07:22:00
1:27 AM,64.9,63.0,93,29.94,1.8,Calm,Calm,-,0.05,Rain,Heavy Rain,0,2012-12-15 07:27:00
1:34 AM,64.9,63.0,93,29.95,1.0,WNW,11.5,16.1,0.10,Rain,Rain,290,2012-12-15 07:34:00
1:38 AM,64.0,61.0,90,29.95,2.0,NW,9.2,16.1,0.10,Rain,Light Rain,310,2012-12-15 07:38:00
1:46 AM,63.0,60.1,90,29.95,3.0,WNW,4.6,-,0.11,Rain,Rain,300,2012-12-15 07:46:00
1:53 AM,63.0,60.1,90,29.93,5.0,NW,4.6,-,0.11,Rain,Light Rain,320,2012-12-15 07:53:00
2:53 AM,63.0,60.1,90,29.93,7.0,Calm,Calm,-,0.01,,Overcast,0,2012-12-15 08:53:00
3:15 AM,62.1,59.0,90,29.96,8.0,WNW,4.6,-,N/A,,Mostly Cloudy,290,2012-12-15 09:15:00
3:53 AM,61.0,57.9,90,29.93,7.0,Calm,Calm,-,N/A,,Mostly Cloudy,0,2012-12-15 09:53:00
4:53 AM,59.0,57.0,93,29.93,6.0,Calm,Calm,-,N/A,,Scattered Clouds,0,2012-12-15 10:53:00
5:53 AM,60.1,57.0,90,29.93,9.0,Calm,Calm,-,N/A,,Overcast,0,2012-12-15 11:53:00
6:53 AM,57.9,55.0,90,29.95,8.0,Calm,Calm,-,N/A,,Overcast,0,2012-12-15 12:53:00
8:53 AM,60.1,51.1,72,29.96,10.0,Calm,Calm,-,N/A,,Partly Cloudy,0,2012-12-15 14:53:00
9:53 AM,62.1,51.1,67,29.97,10.0,NW,4.6,-,N/A,,Mostly Cloudy,310,2012-12-15 15:53:00
10:53 AM,63.0,42.1,46,29.97,10.0,WNW,3.5,-,N/A,,Overcast,300,2012-12-15 16:53:00
11:53 AM,64.0,41.0,43,29.96,10.0,WNW,5.8,-,N/A,,Mostly Cloudy,300,2012-12-15 17:53:00
12:53 PM,66.9,36.0,32,29.91,10.0,Variable,4.6,-,N/A,,Clear,0,2012-12-15 18:53:00
1:53 PM,69.1,37.0,31,29.88,10.0,Calm,Calm,-,N/A,,Clear,0,2012-12-15 19:53:00
2:53 PM,70.0,39.0,32,29.87,10.0,Calm,Calm,-,N/A,,Partly Cloudy,0,2012-12-15 20:53:00
3:53 PM,70.0,39.9,33,29.86,10.0,South,3.5,-,N/A,,Clear,170,2012-12-15 21:53:00
4:53 PM,66.9,43.0,42,29.87,10.0,South,3.5,-,N/A,,Clear,170,2012-12-15 22:53:00
5:53 PM,62.1,46.9,58,29.87,10.0,Calm,Calm,-,N/A,,Clear,0,2012-12-15 23:53:00
6:53 PM,59.0,46.9,64,29.88,10.0,Calm,Calm,-,N/A,,Clear,0,2012-12-16 00:53:00
7:53 PM,59.0,46.9,64,29.89,10.0,Calm,Calm,-,N/A,,Clear,0,2012-12-16 01:53:00
8:53 PM,60.1,45.0,57,29.88,10.0,Calm,Calm,-,N/A,,Clear,0,2012-12-16 02:53:00
9:53 PM,57.9,46.9,67,29.90,10.0,Calm,Calm,-,N/A,,Clear,0,2012-12-16 03:53:00
10:53 PM,57.9,46.0,65,29.89,10.0,Calm,Calm,-,N/A,,Clear,0,2012-12-16 04:53:00
11:48 PM,60.8,44.6,55,29.91,10.0,Calm,Calm,-,N/A,,Mostly Cloudy,0,2012-12-16 05:48:00
11:53 PM,60.1,45.0,57,29.87,10.0,Calm,Calm,-,N/A,,Mostly Cloudy,0,2012-12-16 05:53:00